TimeEST,TemperatureF,Dew PointF,Humidity,Sea Level PressureIn,VisibilityMPH,Wind Direction,Wind SpeedMPH,Gust SpeedMPH,PrecipitationIn,Events,Conditions,WindDirDegrees,DateUTC
12:07 AM,42.8,33.8,70,29.66,10.0,Calm,Calm,-,N/A,,Clear,0,2013-02-28 05:07:00
12:27 AM,42.8,33.8,70,29.66,10.0,Calm,Calm,-,N/A,,Mostly Cloudy,0,2013-02-28 05:27:00
1:07 AM,42.8,37.4,81,29.65,10.0,Calm,Calm,-,N/A,,Scattered Clouds,0,2013-02-28 06:07:00
1:27 AM,42.8,35.6,76,29.66,10.0,South,4.6,-,N/A,,Scattered Clouds,190,2013-02-28 06:27:00
1:47 AM,44.6,33.8,66,29.65,10.0,South,4.6,-,N/A,,Scattered Clouds,190,2013-02-28 06:47:00
2:07 AM,46.4,33.8,62,29.65,10.0,South,5.8,-,N/A,,Scattered Clouds,170,2013-02-28 07:07:00
2:27 AM,44.6,33.8,66,29.64,10.0,Calm,Calm,-,N/A,,Clear,0,2013-02-28 07:27:00
2:47 AM,44.6,33.8,66,29.63,10.0,Calm,Calm,-,N/A,,Scattered Clouds,0,2013-02-28 07:47:00
3:07 AM,44.6,35.6,71,29.64,10.0,West,3.5,-,N/A,,Overcast,280,2013-02-28 08:07:00
3:27 AM,42.8,35.6,76,29.64,10.0,West,4.6,-,N/A,,Overcast,280,2013-02-28 08:27:00
3:47 AM,44.6,33.8,66,29.64,10.0,NW,3.5,-,N/A,,Overcast,320,2013-02-28 08:47:00
4:07 AM,42.8,35.6,76,29.64,10.0,WNW,10.4,-,N/A,,Overcast,300,2013-02-28 09:07:00
4:27 AM,42.8,35.6,76,29.64,10.0,NW,8.1,-,N/A,,Overcast,320,2013-02-28 09:27:00
4:47 AM,42.8,35.6,76,29.65,10.0,NW,10.4,-,N/A,,Overcast,320,2013-02-28 09:47:00
5:07 AM,41.0,35.6,81,29.65,10.0,NW,6.9,-,N/A,,Mostly Cloudy,320,2013-02-28 10:07:00
5:27 AM,41.0,37.4,87,29.65,10.0,NW,5.8,-,N/A,,Mostly Cloudy,320,2013-02-28 10:27:00
5:47 AM,41.0,37.4,87,29.66,7.0,WNW,5.8,-,N/A,,Overcast,300,2013-02-28 10:47:00
6:08 AM,41.0,37.4,87,29.66,7.0,Calm,Calm,-,N/A,,Overcast,0,2013-02-28 11:08:00
6:28 AM,41.0,37.4,87,29.67,7.0,WNW,4.6,-,N/A,,Overcast,300,2013-02-28 11:28:00
7:08 AM,39.2,35.6,87,29.68,10.0,WNW,13.8,17.3,N/A,,Overcast,300,2013-02-28 12:08:00
7:28 AM,39.2,33.8,81,29.68,10.0,WNW,10.4,-,N/A,,Overcast,300,2013-02-28 12:28:00
7:48 AM,39.2,33.8,81,29.69,10.0,West,6.9,-,N/A,,Overcast,280,2013-02-28 12:48:00
8:08 AM,41.0,33.8,76,29.69,10.0,Calm,Calm,-,N/A,,Scattered Clouds,0,2013-02-28 13:08:00
8:28 AM,41.0,32.0,70,29.68,10.0,Calm,Calm,-,N/A,,Clear,0,2013-02-28 13:28:00
8:48 AM,41.0,32.0,70,29.69,10.0,Calm,Calm,-,N/A,,Clear,0,2013-02-28 13:48:00
9:08 AM,41.0,32.0,70,29.68,10.0,Calm,Calm,-,N/A,,Clear,0,2013-02-28 14:08:00
9:28 AM,42.8,32.0,66,29.68,10.0,West,3.5,-,N/A,,Clear,260,2013-02-28 14:28:00
9:48 AM,42.8,32.0,66,29.68,10.0,Calm,Calm,-,N/A,,Clear,0,2013-02-28 14:48:00
10:08 AM,42.8,32.0,66,29.68,10.0,West,4.6,-,N/A,,Clear,280,2013-02-28 15:08:00
10:28 AM,42.8,32.0,66,29.67,10.0,WNW,5.8,-,N/A,,Clear,290,2013-02-28 15:28:00
10:48 AM,44.6,28.4,53,29.67,10.0,West,5.8,-,N/A,,Clear,280,2013-02-28 15:48:00
11:08 AM,44.6,28.4,53,29.67,10.0,West,4.6,-,N/A,,Scattered Clouds,280,2013-02-28 16:08:00
11:28 AM,44.6,28.4,53,29.66,10.0,WNW,8.1,-,N/A,,Clear,290,2013-02-28 16:28:00
11:48 AM,46.4,28.4,50,29.66,10.0,WNW,5.8,-,N/A,,Clear,300,2013-02-28 16:48:00
12:08 PM,46.4,26.6,46,29.65,10.0,NW,6.9,-,N/A,,Scattered Clouds,310,2013-02-28 17:08:00
12:28 PM,46.4,26.6,46,29.64,10.0,WNW,9.2,-,N/A,,Clear,290,2013-02-28 17:28:00
12:48 PM,46.4,23.0,40,29.64,10.0,WNW,12.7,17.3,N/A,,Clear,290,2013-02-28 17:48:00
1:08 PM,46.4,26.6,46,29.64,10.0,WNW,13.8,-,N/A,,Scattered Clouds,300,2013-02-28 18:08:00
1:28 PM,44.6,24.8,46,29.63,10.0,WNW,13.8,19.6,N/A,,Scattered Clouds,290,2013-02-28 18:28:00
1:48 PM,44.6,24.8,46,29.63,10.0,WNW,15.0,23.0,N/A,,Clear,290,2013-02-28 18:48:00
2:08 PM,44.6,26.6,49,29.63,10.0,WNW,15.0,20.7,N/A,,Clear,300,2013-02-28 19:08:00
2:28 PM,44.6,26.6,49,29.64,10.0,WNW,17.3,20.7,N/A,,Clear,300,2013-02-28 19:28:00
3:09 PM,46.4,30.2,53,29.64,10.0,WNW,15.0,18.4,N/A,,Clear,300,2013-02-28 20:09:00
4:09 PM,44.6,32.0,61,29.64,10.0,West,9.2,-,N/A,,Scattered Clouds,270,2013-02-28 21:09:00
4:29 PM,44.6,30.2,57,29.65,10.0,WNW,9.2,-,N/A,,Scattered Clouds,290,2013-02-28 21:29:00
4:49 PM,42.8,30.2,61,29.65,10.0,West,9.2,-,N/A,,Scattered Clouds,280,2013-02-28 21:49:00
5:09 PM,42.8,30.2,61,29.65,10.0,West,9.2,17.3,N/A,,Mostly Cloudy,280,2013-02-28 22:09:00
5:29 PM,42.8,30.2,61,29.66,10.0,WNW,9.2,-,N/A,,Scattered Clouds,290,2013-02-28 22:29:00
5:49 PM,42.8,32.0,66,29.66,10.0,West,9.2,-,N/A,,Scattered Clouds,280,2013-02-28 22:49:00
6:09 PM,42.8,30.2,61,29.67,10.0,West,8.1,-,N/A,,Mostly Cloudy,280,2013-02-28 23:09:00
6:29 PM,42.8,30.2,61,29.68,10.0,West,9.2,-,N/A,,Overcast,280,2013-02-28 23:29:00
6:49 PM,42.8,32.0,66,29.69,10.0,West,10.4,-,N/A,,Mostly Cloudy,280,2013-02-28 23:49:00
7:09 PM,42.8,28.4,57,29.70,10.0,West,17.3,-,N/A,,Mostly Cloudy,280,2013-03-01 00:09:00
7:29 PM,42.8,30.2,61,29.71,10.0,WNW,12.7,19.6,N/A,,Scattered Clouds,290,2013-03-01 00:29:00
7:49 PM,41.0,28.4,61,29.71,10.0,WNW,13.8,-,N/A,,Mostly Cloudy,290,2013-03-01 00:49:00
8:09 PM,41.0,30.2,65,29.71,10.0,West,10.4,-,N/A,,Overcast,280,2013-03-01 01:09:00
8:29 PM,41.0,30.2,65,29.72,10.0,WNW,10.4,-,N/A,,Mostly Cloudy,290,2013-03-01 01:29:00
8:49 PM,41.0,30.2,65,29.73,10.0,West,8.1,-,N/A,,Scattered Clouds,270,2013-03-01 01:49:00
9:09 PM,41.0,30.2,65,29.73,10.0,West,8.1,-,N/A,,Scattered Clouds,280,2013-03-01 02:09:00
9:29 PM,41.0,30.2,65,29.73,10.0,West,9.2,-,N/A,,Scattered Clouds,280,2013-03-01 02:29:00
10:09 PM,41.0,30.2,65,29.72,10.0,West,10.4,-,N/A,,Clear,280,2013-03-01 03:09:00
10:29 PM,41.0,30.2,65,29.72,10.0,WNW,10.4,-,N/A,,Scattered Clouds,290,2013-03-01 03:29:00
10:49 PM,41.0,30.2,65,29.71,10.0,WNW,10.4,-,N/A,,Mostly Cloudy,290,2013-03-01 03:49:00
11:09 PM,41.0,30.2,65,29.71,10.0,West,9.2,-,N/A,,Mostly Cloudy,280,2013-03-01 04:09:00
11:30 PM,41.0,30.2,65,29.71,10.0,West,8.1,-,N/A,,Mostly Cloudy,280,2013-03-01 04:30:00
11:50 PM,41.0,30.2,65,29.71,10.0,West,10.4,-,N/A,,Mostly Cloudy,280,2013-03-01 04:50:00